[[{"header":{"parameterUnit":"m.s-1","parameterCategory":1,"la1":30.2991,"la2":30.254,"lo1":-89.0895,"lo2":-89.0444,"dy":0.0017,"dx":0.0017,"nx":28,"ny":28,"refTime":"2024-10-05T09:00:00:Z","depth":0,"parameterNumber":2,"parameterNumberName":"U-component_of_WINDS"},"data":[0,0,0,0,0,0,0,0,0,0,0,0,0,0,0,0,0,0,0,0,0,0,0,0,0,0,0,0,0,0,0,0,0,0,0,0,0,0,0,0,0,0,0,0,0,0,0,0,0,0,0,0,0,0,0,0,0,0,-4.3115,-4.3116,0,-4.3227,-4.3228,-4.3229,-4.3136,-4.3132,-4.3128,-4.3125,-4.3241,-4.3247,-4.3254,0,0,0,0,0,0,0,0,0,0,0,0,0,-4.2821,-4.2827,-4.3114,-4.3116,-4.3117,-4.3226,-4.3228,-4.3229,-4.3137,-4.3132,-4.3127,-4.3123,-4.3238,-4.3246,-4.3254,0,0,0,0,0,0,0,0,0,0,0,0,0,-4.2942,-4.2829,-4.3114,-4.3084,-4.3083,-4.3226,-4.3228,-4.323,-4.3138,-4.3132,-4.3126,-4.3121,-4.3236,-4.3246,-4.3255,-4.3435,0,0,-4.3286,-4.3291,0,0,0,0,0,0,0,0,-4.2936,-4.2953,-4.3087,-4.3086,-4.3085,-4.3161,-4.3167,-4.3299,-4.3139,-4.3117,-4.3125,-4.3118,-4.3219,-4.323,-4.3264,-4.344,-4.3445,-4.3287,-4.3293,-4.3298,-4.33,0,0,0,0,0,0,0,-4.2927,-4.2948,-4.3159,-4.3089,-4.3088,-4.3065,-4.3076,-4.3191,-4.3199,-4.3118,-4.3112,-4.3126,-4.3217,-4.3255,-4.3266,-4.3447,-4.3287,-4.3296,-4.3302,-4.3306,-4.3777,-4.3783,0,0,0,0,0,0,-4.2922,-4.2942,-4.3155,-4.3162,-4.2994,-4.3075,-4.3087,-4.3143,-4.3198,-4.3201,-4.3131,-4.3122,-4.324,-4.3254,-4.327,-4.3484,-4.3298,-4.3307,-4.3313,-4.377,-4.3778,-4.3785,0,0,0,0,0,0,-4.2916,-4.2942,-4.3151,-4.305,-4.3075,-4.3087,-4.315,-4.3148,-4.3185,-4.3208,-4.3209,-4.3168,-4.3236,-4.3256,-4.3395,-4.3487,-4.3312,-4.3321,-4.3763,-4.3773,-4.3782,-4.3915,0,0,0,0,0,0,-4.2908,-4.294,-4.3008,-4.3052,-4.3081,-4.3274,-4.3155,-4.3154,-4.3203,-4.3191,-4.3242,-4.3245,-4.3233,-4.338,-4.3405,-4.3498,-4.3329,-4.3755,-4.3767,-4.3779,-4.3902,-4.3928,-4.395,0,0,0,0,0,-4.2898,-4.3041,-4.3012,-4.3038,-4.3166,-4.3279,-4.3295,-4.3278,-4.321,-4.3279,-4.3294,-4.3243,-4.3473,-4.3395,-4.3422,-4.352,-4.3749,-4.3764,-4.3778,-4.3891,-4.3923,-4.3949,0,0,0,0,0,0,-4.3008,-4.3046,-4.3015,-4.3177,-4.3225,-4.3263,-4.3349,-4.3312,-4.3381,-4.3368,-4.3343,-4.3356,-4.3503,-4.3524,-4.3437,-4.3696,-4.36,-4.3621,-4.3677,-4.3707,-4.373,-4.3723,-4.3337,0,0,0,0,0,-4.3051,-4.3139,-4.3168,-4.3308,-4.3334,-4.3338,-4.3387,-4.3369,-4.3419,-4.3439,-4.3464,-4.3514,-4.3598,-4.3653,-4.3731,-4.3904,-4.3915,-4.3985,-4.4008,-4.4028,-4.4046,-4.4141,-4.4173,-4.3833,-4.3833,-4.3833,0,0,-4.3141,-4.3173,-4.323,-4.3331,-4.3367,-4.346,-4.3356,-4.3458,-4.3527,-4.3455,-4.3588,-4.3608,-4.3662,-4.382,-4.389,-4.3843,-4.4142,-4.4046,-4.4062,-4.407,-4.4159,-4.4191,-4.422,-4.3843,-4.3841,-4.384,0,0,-4.3352,-4.3385,-4.3506,-4.3544,-4.3599,-4.3601,-4.363,-4.3674,-4.3685,-4.3818,-4.3766,-4.3847,-4.3991,-4.4032,-4.4072,-4.43,-4.4257,-4.4326,-4.4451,-4.4544,-4.457,-4.4594,-4.4677,-4.4707,-4.4344,-4.4345,-4.4345,0,-4.3457,-4.3595,-4.3573,-4.3679,-4.3726,-4.3664,-4.3787,-4.3825,-4.3903,-4.3937,-4.3882,-4.4062,-4.4094,-4.4261,-4.4317,-4.4351,-4.4384,-4.4321,-4.4568,-4.4592,-4.4614,-4.4692,-4.4723,-4.4353,-4.4352,-4.4351,-4.435,0,-4.3722,-4.3818,-4.3909,-4.3986,-4.4043,-4.4157,-4.4153,-4.4213,-4.419,-4.4198,-4.4335,-4.4372,-4.4456,-4.4494,-4.4473,-4.4659,-4.4628,-4.4571,-4.4474,-4.4655,-4.4728,-4.4758,-4.4365,-4.4362,-4.4359,-4.4357,0,0,-4.4007,-4.407,-4.4105,-4.4139,-4.4196,-4.427,-4.4382,-4.4464,-4.4517,-4.4573,-4.4667,-4.479,-4.4738,-4.4784,-4.4767,-4.4848,-4.5028,-4.4781,-4.4782,-4.4828,-4.5237,-4.528,-4.5315,-4.4999,-4.5005,-4.5009,-4.5233,0,-4.4222,-4.4416,-4.44,-4.4584,-4.4673,-4.4616,-4.4713,-4.4759,-4.4769,-4.4847,-4.4857,-4.4946,-4.487,-4.4897,-4.4975,-4.499,-4.511,-4.4973,-4.5088,-4.5092,-4.5078,-4.5354,-4.54,-4.5609,-4.5261,-4.5266,-4.5269,0,-4.4499,-4.4565,-4.4758,-4.4803,-4.4839,-4.4927,-4.5002,-4.5077,-4.5128,-4.5129,-4.5181,-4.515,-4.5263,-4.5163,-4.5319,-4.5226,-4.5272,-4.5286,-4.5294,-4.5305,-4.5193,-4.5374,-4.5675,-4.5707,-4.5314,-4.5311,-4.5307,0,-4.4689,-4.4826,-4.496,-4.4991,-4.5046,-4.5109,-4.5135,-4.518,-4.5231,-4.5297,-4.533,-4.5408,-4.5451,-4.5512,-4.5504,-4.5431,-4.5664,-4.5562,-4.567,-4.5671,-4.5723,-4.572,-4.6037,-4.575,-4.5749,-4.5749,-4.5748,0,-4.4932,-4.5053,-4.5047,-4.5129,-4.5263,-4.5243,-4.5376,-4.5394,-4.5435,-4.5521,-4.5475,-4.5557,-4.554,-4.5621,-4.5616,-4.5747,-4.5766,-4.5772,-4.5769,-4.5777,-4.5777,-4.5808,-4.5794,-4.5757,-4.5755,-4.5754,-4.5752,0,-4.5168,-4.5168,-4.5311,-4.5351,-4.5364,-4.5461,-4.5495,-4.5573,-4.5579,-4.5688,-4.5712,-4.5723,-4.5816,-4.5813,-4.5919,-4.5916,-4.6078,-4.6057,-4.6061,-4.6057,-4.6166,-4.6156,-4.6515,-4.6562,-4.6243,-4.6246,-4.6248,0,-4.5324,-4.5416,-4.5466,-4.552,-4.555,-4.5637,-4.5689,-4.5673,-4.5729,-4.5795,-4.5866,-4.5954,-4.6025,-4.6177,-4.6194,-4.6275,-4.6258,-4.6378,-4.627,-4.6275,-4.6262,-4.6257,-4.6267,-4.64,-4.6403,-4.6406,-4.6408,0,-4.5601,-4.5597,-4.5674,-4.5752,-4.5815,-4.5875,-4.593,-4.5977,-4.5967,-4.6033,-4.6127,-4.6182,-4.6291,-4.638,-4.6458,-4.6485,-4.6447,-4.6442,-4.6472,-4.6481,-4.648,-4.6484,-4.612,-4.6434,-4.6432,-4.643,-4.6428,-4.6427,-4.5803,-4.5882,-4.593,-4.6018,-4.6058,-4.611,-4.6186,-4.6202,-4.6281,-4.6368,-4.6353,-4.646,-4.6509,-4.661,-4.6644,-4.6728,-4.6685,-4.6728,-4.6739,-4.675,-4.6763,-4.6466,-4.6742,-4.6741,-4.674,-4.6739,-4.6739,0,-4.6079,-4.6107,-4.6188,-4.6267,-4.6336,-4.6292,-4.6351,-4.6412,-4.6507,-4.6556,-4.6626,-4.6736,-4.6823,-4.6847,-4.6931,-4.6993,-4.6978,-4.7016,-4.7012,-4.7019,-4.6795,-4.6762,-4.7027,-4.7027,-4.7027,-4.7027,-4.7027,-4.7027,-4.6231,-4.6364,-4.6365,-4.6517,-4.6544,-4.6649,-4.6686,-4.6735,-4.6774,-4.6899,-4.6971,-4.6986,-4.7025,-4.7112,-4.719,-4.7195,-4.7228,-4.7275,-4.7273,-4.7063,-4.7035,-4.7007,-4.6976,-4.7282,-4.7282,-4.749,-4.7492,-4.7493]},{"header":{"parameterUnit":"m.s-1","parameterCategory":1,"la1":30.2991,"la2":30.254,"lo1":-89.0895,"lo2":-89.0444,"dy":0.0017,"dx":0.0017,"nx":28,"ny":28,"refTime":"2024-10-05T09:00:00:Z","depth":0,"parameterNumber":3,"parameterNumberName":"V-component_of_WINDS"},"data":[0,0,0,0,0,0,0,0,0,0,0,0,0,0,0,0,0,0,0,0,0,0,0,0,0,0,0,0,0,0,0,0,0,0,0,0,0,0,0,0,0,0,0,0,0,0,0,0,0,0,0,0,0,0,0,0,0,0,-3.7587,-3.7587,0,-3.7589,-3.7589,-3.7589,-3.7531,-3.753,-3.7528,-3.7527,-3.7528,-3.753,-3.7531,0,0,0,0,0,0,0,0,0,0,0,0,0,-3.7533,-3.7535,-3.7587,-3.7587,-3.7587,-3.7589,-3.7589,-3.7589,-3.7532,-3.753,-3.7528,-3.7526,-3.7528,-3.753,-3.7531,0,0,0,0,0,0,0,0,0,0,0,0,0,-3.7548,-3.7535,-3.7587,-3.7559,-3.7556,-3.7589,-3.7589,-3.7589,-3.7532,-3.753,-3.7527,-3.7525,-3.7527,-3.753,-3.7532,-3.7591,0,0,-3.7538,-3.7539,0,0,0,0,0,0,0,0,-3.7547,-3.755,-3.7563,-3.7561,-3.7558,-3.7557,-3.757,-3.7589,-3.7533,-3.7541,-3.7527,-3.7524,-3.754,-3.7541,-3.7546,-3.7591,-3.7591,-3.7539,-3.754,-3.7541,-3.7541,0,0,0,0,0,0,0,-3.7546,-3.755,-3.7588,-3.7563,-3.756,-3.7546,-3.7545,-3.7574,-3.7553,-3.754,-3.7536,-3.7537,-3.7538,-3.7544,-3.7546,-3.7591,-3.7539,-3.754,-3.7542,-3.7543,-3.7683,-3.7685,0,0,0,0,0,0,-3.7549,-3.7549,-3.7588,-3.7588,-3.7547,-3.7548,-3.7548,-3.756,-3.7553,-3.755,-3.7539,-3.7534,-3.7542,-3.7543,-3.7546,-3.7613,-3.7541,-3.7543,-3.7544,-3.768,-3.7683,-3.7686,0,0,0,0,0,0,-3.7548,-3.7553,-3.7587,-3.7567,-3.7571,-3.7552,-3.7566,-3.7561,-3.7567,-3.7552,-3.7548,-3.7549,-3.754,-3.7543,-3.758,-3.7613,-3.7544,-3.7546,-3.7678,-3.7681,-3.7685,-3.775,0,0,0,0,0,0,-3.7547,-3.7553,-3.7576,-3.7568,-3.7572,-3.7622,-3.7568,-3.7563,-3.7571,-3.7565,-3.756,-3.7557,-3.7538,-3.7577,-3.7582,-3.7614,-3.7548,-3.7675,-3.7679,-3.7684,-3.7745,-3.7756,-3.7765,0,0,0,0,0,-3.7545,-3.7595,-3.7578,-3.7582,-3.76,-3.7624,-3.7626,-3.7603,-3.7574,-3.7596,-3.7586,-3.7558,-3.7608,-3.7581,-3.7586,-3.762,-3.7672,-3.7678,-3.7683,-3.7741,-3.7754,-3.7765,0,0,0,0,0,0,-3.7607,-3.7593,-3.7574,-3.7623,-3.7625,-3.7614,-3.7642,-3.7618,-3.7629,-3.7623,-3.7594,-3.7593,-3.7635,-3.7631,-3.7601,-3.7676,-3.7635,-3.7642,-3.7677,-3.7689,-3.7699,-3.7699,-3.7549,0,0,0,0,0,-3.7627,-3.7648,-3.7634,-3.7678,-3.768,-3.7661,-3.7671,-3.7653,-3.7654,-3.7655,-3.7648,-3.765,-3.7666,-3.7678,-3.7692,-3.7744,-3.7742,-3.777,-3.778,-3.7788,-3.7794,-3.782,-3.7832,-3.7704,-3.7704,-3.7704,0,0,-3.7667,-3.7662,-3.7677,-3.7691,-3.769,-3.7712,-3.7662,-3.7688,-3.7704,-3.7659,-3.7693,-3.7688,-3.7688,-3.7733,-3.7752,-3.7731,-3.7829,-3.7795,-3.7802,-3.7803,-3.7827,-3.7839,-3.785,-3.7707,-3.7707,-3.7706,0,0,-3.7751,-3.775,-3.7785,-3.7786,-3.7786,-3.7772,-3.7781,-3.7774,-3.7769,-3.7803,-3.7769,-3.7787,-3.7816,-3.7817,-3.7822,-3.7905,-3.7879,-3.7911,-3.7962,-3.7988,-3.7998,-3.8007,-3.8035,-3.8046,-3.7917,-3.7917,-3.7917,0,-3.7801,-3.7833,-3.7807,-3.7834,-3.7841,-3.7801,-3.7836,-3.7838,-3.7843,-3.7848,-3.7824,-3.7859,-3.7857,-3.79,-3.7921,-3.7926,-3.7934,-3.7911,-3.7998,-3.8007,-3.8015,-3.8042,-3.8053,-3.7921,-3.792,-3.792,-3.792,0,-3.7893,-3.7916,-3.7945,-3.7949,-3.7959,-3.7991,-3.7969,-3.7982,-3.7963,-3.7952,-3.7986,-3.7982,-3.7994,-3.8003,-3.7985,-3.8044,-3.8031,-3.8004,-3.7961,-3.8031,-3.8056,-3.8066,-3.7926,-3.7925,-3.7924,-3.7923,0,0,-3.8017,-3.8006,-3.8017,-3.8018,-3.8015,-3.8031,-3.8061,-3.8072,-3.8083,-3.8087,-3.811,-3.8135,-3.8109,-3.8115,-3.8096,-3.8119,-3.8184,-3.8089,-3.8088,-3.8106,-3.8247,-3.8267,-3.828,-3.8166,-3.8168,-3.817,-3.8247,0,-3.8098,-3.8147,-3.8124,-3.8175,-3.8195,-3.8156,-3.8181,-3.8182,-3.8172,-3.8187,-3.8176,-3.8194,-3.8159,-3.8161,-3.8182,-3.8172,-3.8212,-3.8166,-3.8187,-3.8188,-3.8187,-3.8293,-3.8314,-3.8388,-3.8257,-3.8258,-3.8259,0,-3.8199,-3.8206,-3.826,-3.8251,-3.8258,-3.8281,-3.8289,-3.8304,-3.8303,-3.8294,-3.8299,-3.8275,-3.8303,-3.8261,-3.8298,-3.8267,-3.8274,-3.8271,-3.8273,-3.8273,-3.8228,-3.8295,-3.841,-3.8421,-3.8275,-3.8273,-3.8272,0,-3.8282,-3.8306,-3.834,-3.8343,-3.8334,-3.835,-3.8348,-3.8344,-3.8352,-3.8359,-3.8363,-3.8374,-3.8379,-3.8388,-3.8367,-3.8339,-3.8406,-3.8363,-3.8399,-3.84,-3.8414,-3.8414,-3.8531,-3.8421,-3.8421,-3.842,-3.842,0,-3.8374,-3.8408,-3.8377,-3.8399,-3.8435,-3.8408,-3.8444,-3.8437,-3.8435,-3.8453,-3.8421,-3.8439,-3.8411,-3.8426,-3.841,-3.8442,-3.8445,-3.8439,-3.8434,-3.8441,-3.8442,-3.8445,-3.8439,-3.8423,-3.8423,-3.8422,-3.8422,0,-3.8474,-3.8455,-3.849,-3.8478,-3.8475,-3.8503,-3.8492,-3.8511,-3.8499,-3.8523,-3.8527,-3.8507,-3.8523,-3.8503,-3.8518,-3.8507,-3.8551,-3.8539,-3.8551,-3.8547,-3.8584,-3.858,-3.8707,-3.8722,-3.8603,-3.8604,-3.8605,0,-3.8534,-3.8558,-3.8549,-3.8559,-3.8557,-3.8574,-3.8581,-3.8555,-3.8564,-3.8564,-3.8583,-3.8596,-3.8606,-3.8633,-3.8621,-3.8631,-3.8619,-3.8662,-3.862,-3.8626,-3.8618,-3.8617,-3.8619,-3.8671,-3.8672,-3.8674,-3.8675,0,-3.8641,-3.863,-3.8642,-3.865,-3.866,-3.8665,-3.8668,-3.8678,-3.8651,-3.8663,-3.8678,-3.8685,-3.87,-3.8713,-3.872,-3.8717,-3.8691,-3.8688,-3.8696,-3.8704,-3.8709,-3.8706,-3.8574,-3.8685,-3.8684,-3.8683,-3.8683,-3.8682,-3.8722,-3.8741,-3.8737,-3.8751,-3.875,-3.8753,-3.877,-3.8759,-3.8772,-3.8781,-3.8765,-3.8784,-3.8782,-3.8788,-3.8788,-3.8803,-3.8784,-3.8797,-3.88,-3.8803,-3.8808,-3.8708,-3.8804,-3.8804,-3.8804,-3.8803,-3.8803,0,-3.8826,-3.8821,-3.8834,-3.8839,-3.885,-3.8824,-3.8825,-3.8836,-3.8854,-3.8853,-3.8862,-3.888,-3.8893,-3.8881,-3.8891,-3.8905,-3.8893,-3.8908,-3.8906,-3.8906,-3.8825,-3.8816,-3.8917,-3.8917,-3.8917,-3.8917,-3.8917,-3.8917,-3.8882,-3.8913,-3.8902,-3.8932,-3.8927,-3.8945,-3.8948,-3.8951,-3.895,-3.8971,-3.8981,-3.8972,-3.8967,-3.8976,-3.8986,-3.8982,-3.8987,-3.9006,-3.8998,-3.8923,-3.8912,-3.8901,-3.8892,-3.9008,-3.9008,-3.9078,-3.9078,-3.9079]}]]